Voltar ao catálogo

STARLINK-35782

AtivoComunicaçõesVLEO
NORAD 67182·PAYLOAD·🇺🇸 United States

Lançado Dec 17, 2025 de Cape Canaveral Space Force Station

Loading…

Próximas Passagens (próximas 24 horas)

TLE

AtualizadoSource: CelesTrak SupGP

Época: Sep 15, 2026, 04:07 UTC

1 67182C 25303V   26258.17201389  .00025338  00000+0  91761-3 0  2586
2 67182  43.0014 320.2622 0001217 263.5744 257.5609 15.27571180    19

Acompanhe STARLINK-35782 em tempo real com AllMySat

Download on the App Store